Regional Weather Roundup
Issued by NWS

Home | Current Version | Previous Version | Text Only | Print | Product List | Glossary On
Versions: 1 2 3 4 5 6 7 8 9 10 11 12 13 14 15 16 17 18 19 20 21 22 23 24 25 26 27 28 29 30 31 32 33 34 35 36 37 38 39 40 41 42 43 44 45 46 47 48 49 50
773
ASUS44 KBMX 062110
RWRAL

ALABAMA REGIONAL WEATHER ROUNDUP
NATIONAL WEATHER SERVICE BIRMINGHAM AL
300 PM CST SAT FEB 06 2016

NOTE: "FAIR" INDICATES FEW OR NO CLOUDS BELOW 12,000 FEET
WITH NO SIGNIFICANT WEATHER AND/OR OBSTRUCTIONS TO VISIBILITY.

THE REMARK "TC" DENOTES TEMPERATURE IN DEGREES CELSIUS.

ALZ001>011-014-016>018-020-062200-
NORTH ALABAMA

CITY           SKY/WX    TMP DP  RH WIND       PRES   REMARKS
MUSCLE SHOALS  MOSUNNY   49  22  34 E3        30.31F
HUNTSVILLE     PTSUNNY   49  16  26 NE7       30.29F
DECATUR        CLOUDY    47  21  35 NE9       30.31F
HALEYVILLE     PTSUNNY   47  18  31 NE8       30.30S
GADSDEN        MOSUNNY   49  21  33 N7        30.29F
$$

ALZ012-013-022-023-030>036-040>044-062200-
WEST CENTRAL ALABAMA

CITY           SKY/WX    TMP DP  RH WIND       PRES   REMARKS
TUSCALOOSA     SUNNY     54  15  21 N9        30.28F
$$

ALZ015-024>027-033>036-040>044-062200-
CENTRAL ALABAMA

CITY           SKY/WX    TMP DP  RH WIND       PRES   REMARKS
BIRMINGHAM     PTSUNNY   50  17  27 VRB6      30.28F
MONTGOMERY     SUNNY     55  17  22 NE9       30.25F
SHELBY CO ARPT SUNNY     51  16  24 VRB7      30.26S
MAXWELL AFB    SUNNY     53  18  25 VRB1      30.24F
GREENVILLE     NOT AVBL
$$

ALZ019-021-028-029-037-038-045>048-062200-
EAST CENTRAL ALABAMA

CITY           SKY/WX    TMP DP  RH WIND       PRES   REMARKS
ANNISTON       MOSUNNY   50  20  30 N13G21    30.26F
ALEXANDER CITY SUNNY     50  25  37 NW8       30.23F
AUBURN         SUNNY     52  19  27 NW9       30.23S
$$

ALZ051>064-062200-
SOUTHWEST ALABAMA

CITY           SKY/WX    TMP DP  RH WIND       PRES   REMARKS
MOBILE         MOSUNNY   57  21  24 N7        30.23S
BROOKLEY FIELD SUNNY     56  23  27 NE9       30.25F
EVERGREEN      MOSUNNY   55  16  21 N8        30.23F
$$

ALZ049-050-065>069-062200-
SOUTHEAST ALABAMA

CITY           SKY/WX    TMP DP  RH WIND       PRES   REMARKS
DOTHAN         SUNNY     56  25  30 MISG      30.22F
OZARK          SUNNY     55  23  29 NW7       30.19F
TROY           SUNNY     57  21  24 CALM      30.23S
EUFAULA        FAIR      57  23  26 VRB7      30.19F
$$




USA.gov is the U.S. government's official web portal to all federal, state and local government web resources and services.